Back to catalog

ONEWEB-0266

AliveCommunicationsPO
NORAD 48984·PAYLOAD·🇬🇧 United Kingdom

Launched Jul 1, 2021 from Vostochny Cosmodrome

Loading…

Next Passes (next 24 hours)

TLE

FreshSource: CelesTrak SupGP

Epoch: Sep 15, 2026, 01:04 UTC

1 48984C 21060T   26258.04496944 -.00002843  00000+0 -74464-2 0  2588
2 48984  87.9150 210.9339 0001992  81.0974 330.6233 13.16592998    16

Track ONEWEB-0266 in real time with AllMySat

Download on the App Store